Weather History for Menominee, MI

Change the Weather History Date:

Sunday, January 20, 2013

  Actual Average Record
Temperature  
Mean Temperature 6 °F -  
Max Temperature 12 °F 26 °F 47 °F (1964)
Min Temperature 1 °F 9 °F -22 °F (1985)
Degree Days  
Heating Degree Days 58    
Moisture  
Dew Point -4 °F    
Average Humidity 59    
Maximum Humidity 73    
Minimum Humidity 45    
Precipitation  
Precipitation 0.00 in - - ()
Sea Level Pressure  
Sea Level Pressure 30.10 in    
Wind  
Wind Speed 10 mph (WNW)    
Max Wind Speed 18 mph    
Max Gust Speed 31 mph    
Visibility 10 miles    
Events      
Averages and records for this station are not official NWS values.
T = Trace of Precipitation, MM = Missing Value Source: NWS Daily Summary

Daily Weather History Graph

Daily Weather History Graph

Search for Another Location

Airport:

Trip Planner

Search our weather history database for the weather conditions in past years. The results will help you decide how hot, cold, wet, or windy it might be!

Date:

Astronomy

Jan. 20, 2013 Rise Set
Actual Time 7:22 AM CST 4:41 PM CST
Civil Twilight 6:49 AM CST 5:14 PM CST
Nautical Twilight 6:13 AM CST 5:50 PM CST
Astronomical Twilight 5:38 AM CST 6:25 PM CST
Moon 11:43 AM CST (1/20) 1:52 AM CST (1/20)
Length of Visible Light 10h 24m
Length of Day
9h 19m
Waxing Gibbous, 66% of the Moon is Illuminated
Jan 20
Waxing Gibbous
Jan 26
Full
Feb 3
Last Quarter
Feb 10
New
Feb 17
First Quarter

Hourly Weather History & Observations

Time (CST) Temp. Windchill Dew Point Humidity Pressure Visibility Wind Dir Wind Speed Gust Speed Precip Events Conditions
12:15 AM 12.2 °F -5.3 °F -2.2 °F 53% 29.79 in 10.0 mi NNW 18.4 mph 31.1 mph N/A   Mostly Cloudy
12:35 AM 10.4 °F -6.6 °F -4.0 °F 52% 29.81 in 10.0 mi NNW 16.1 mph 28.8 mph N/A   Mostly Cloudy
12:55 AM 10.4 °F -5.4 °F -2.2 °F 57% 29.83 in 10.0 mi NW 13.8 mph 24.2 mph N/A   Mostly Cloudy
1:15 AM 10.4 °F -3.3 °F -2.2 °F 57% 29.85 in 10.0 mi NW 10.4 mph 20.7 mph N/A   Mostly Cloudy
1:35 AM 10.4 °F -4.8 °F -2.2 °F 57% 29.87 in 10.0 mi WNW 12.7 mph 21.9 mph N/A   Scattered Clouds
1:55 AM 8.6 °F -5.5 °F -2.2 °F 62% 29.89 in 10.0 mi NW 10.4 mph 20.7 mph N/A   Scattered Clouds
2:15 AM 8.6 °F -7.0 °F -0.4 °F 67% 29.91 in 10.0 mi NW 12.7 mph 20.7 mph N/A   Mostly Cloudy
2:35 AM 8.6 °F -5.5 °F -2.2 °F 62% 29.93 in 10.0 mi NW 10.4 mph 20.7 mph N/A   Mostly Cloudy
2:55 AM 8.6 °F -3.7 °F -2.2 °F 62% 29.94 in 10.0 mi NW 8.1 mph 19.6 mph N/A   Mostly Cloudy
3:15 AM 8.6 °F -3.7 °F -0.4 °F 67% 29.96 in 10.0 mi NW 8.1 mph 17.3 mph N/A   Scattered Clouds
3:35 AM 10.4 °F -2.4 °F -0.4 °F 62% 29.97 in 10.0 mi NW 9.2 mph 19.6 mph N/A   Clear
3:55 AM 8.6 °F -3.7 °F -0.4 °F 67% 29.98 in 10.0 mi NW 8.1 mph - N/A   Clear
4:15 AM 8.6 °F -3.7 °F -0.4 °F 67% 30.00 in 10.0 mi NW 8.1 mph - N/A   Clear
4:35 AM 8.6 °F -2.6 °F -0.4 °F 67% 30.01 in 10.0 mi NW 6.9 mph - N/A   Clear
4:55 AM 8.6 °F 0.1 °F -2.2 °F 62% 30.02 in 10.0 mi WNW 4.6 mph - N/A   Scattered Clouds
5:15 AM 8.6 °F 0.1 °F -0.4 °F 67% 30.03 in 10.0 mi WNW 4.6 mph - N/A   Mostly Cloudy
5:35 AM 8.6 °F -4.7 °F -0.4 °F 67% 30.05 in 10.0 mi NNW 9.2 mph - N/A   Mostly Cloudy
5:55 AM 8.6 °F -4.7 °F -2.2 °F 62% 30.06 in 10.0 mi NW 9.2 mph - N/A   Scattered Clouds
6:15 AM 8.6 °F -4.7 °F -2.2 °F 62% 30.08 in 10.0 mi NW 9.2 mph - N/A   Clear
6:35 AM 8.6 °F -1.3 °F -2.2 °F 62% 30.10 in 10.0 mi West 5.8 mph - N/A   Clear
6:55 AM 6.8 °F -2.0 °F -2.2 °F 67% 30.11 in 10.0 mi WNW 4.6 mph - N/A   Partly Cloudy
7:15 AM 6.8 °F -5.9 °F -0.4 °F 72% 30.12 in 10.0 mi WNW 8.1 mph - N/A   Mostly Cloudy
7:35 AM 6.8 °F -4.8 °F -2.2 °F 67% 30.12 in 10.0 mi West 6.9 mph - N/A   Overcast
7:55 AM 5.0 °F -9.1 °F -2.2 °F 72% 30.14 in 10.0 mi WNW 9.2 mph - N/A   Partly Cloudy
8:15 AM 5.0 °F -9.1 °F -2.2 °F 72% 30.15 in 10.0 mi WNW 9.2 mph - N/A   Clear
8:35 AM 6.8 °F -6.9 °F -2.2 °F 67% 30.17 in 10.0 mi WNW 9.2 mph - N/A   Partly Cloudy
8:55 AM 6.8 °F -7.8 °F -0.4 °F 72% 30.17 in 10.0 mi WNW 10.4 mph 16.1 mph N/A   Mostly Cloudy
9:15 AM 6.8 °F -2.0 °F -0.4 °F 72% 30.18 in 10.0 mi NW 4.6 mph - N/A   Scattered Clouds
9:35 AM 8.6 °F -6.3 °F -0.4 °F 67% 30.18 in 10.0 mi WNW 11.5 mph - N/A   Partly Cloudy
9:55 AM 8.6 °F -6.3 °F -2.2 °F 62% 30.19 in 10.0 mi WNW 11.5 mph - N/A   Partly Cloudy
10:15 AM 8.6 °F -3.7 °F 1.4 °F 73% 30.19 in 10.0 mi WNW 8.1 mph 17.3 mph N/A   Clear
10:35 AM 8.6 °F -6.3 °F -2.2 °F 62% 30.19 in 10.0 mi NW 11.5 mph 18.4 mph N/A   Clear
10:55 AM 8.6 °F -7.0 °F -2.2 °F 62% 30.19 in 10.0 mi NNW 12.7 mph 18.4 mph N/A   Clear
11:15 AM 10.4 °F -4.1 °F -4.0 °F 52% 30.19 in 10.0 mi NW 11.5 mph 19.6 mph N/A   Clear
11:35 AM 10.4 °F -2.4 °F -4.0 °F 52% 30.18 in 10.0 mi NW 9.2 mph 18.4 mph N/A   Clear
12:15 PM 10.4 °F -3.3 °F -4.0 °F 52% 30.17 in 10.0 mi NW 10.4 mph 17.3 mph N/A   Clear
12:35 PM 10.4 °F -2.4 °F -4.0 °F 52% 30.17 in 10.0 mi NNW 9.2 mph 24.2 mph N/A   Clear
12:55 PM 10.4 °F -1.5 °F -2.2 °F 57% 30.17 in 10.0 mi WNW 8.1 mph 17.3 mph N/A   Clear
1:15 PM 12.2 °F -1.8 °F -2.2 °F 53% 30.17 in 10.0 mi WNW 11.5 mph 17.3 mph N/A   Clear
1:35 PM 12.2 °F 0.7 °F -2.2 °F 53% 30.17 in 10.0 mi West 8.1 mph - N/A   Partly Cloudy
1:55 PM 12.2 °F 1.7 °F -4.0 °F 48% 30.17 in 10.0 mi WNW 6.9 mph 18.4 mph N/A   Partly Cloudy
2:15 PM 12.2 °F 0.7 °F -5.8 °F 45% 30.17 in 10.0 mi WNW 8.1 mph - N/A   Scattered Clouds
2:35 PM 12.2 °F 2.9 °F -2.2 °F 53% 30.17 in 10.0 mi WNW 5.8 mph - N/A   Mostly Cloudy
2:55 PM 12.2 °F 0.7 °F -0.4 °F 57% 30.17 in 10.0 mi WNW 8.1 mph 16.1 mph N/A   Mostly Cloudy
3:15 PM 12.2 °F 0.7 °F -4.0 °F 48% 30.17 in 10.0 mi NW 8.1 mph - N/A   Partly Cloudy
3:35 PM 12.2 °F -0.2 °F -4.0 °F 48% 30.16 in 10.0 mi WNW 9.2 mph - N/A   Partly Cloudy
3:55 PM 12.2 °F 0.7 °F -5.8 °F 45% 30.16 in 10.0 mi West 8.1 mph - N/A   Scattered Clouds
4:15 PM 12.2 °F -0.2 °F -5.8 °F 45% 30.16 in 10.0 mi WNW 9.2 mph - N/A   Scattered Clouds
4:35 PM 10.4 °F -1.5 °F -5.8 °F 48% 30.16 in 10.0 mi WNW 8.1 mph - N/A   Clear
4:55 PM 10.4 °F 0.8 °F -5.8 °F 48% 30.17 in 10.0 mi WNW 5.8 mph - N/A   Clear
5:15 PM 10.4 °F 0.8 °F -5.8 °F 48% 30.17 in 10.0 mi WNW 5.8 mph - N/A   Clear
5:35 PM 8.6 °F 0.1 °F -5.8 °F 52% 30.17 in 10.0 mi NW 4.6 mph - N/A   Partly Cloudy
5:55 PM 8.6 °F 2.0 °F -7.6 °F 48% 30.17 in 10.0 mi WNW 3.5 mph - N/A   Scattered Clouds
6:15 PM 8.6 °F - -5.8 °F 52% 30.17 in 10.0 mi Calm Calm - N/A   Mostly Cloudy
6:35 PM 6.8 °F -0.1 °F -5.8 °F 56% 30.18 in 10.0 mi WNW 3.5 mph - N/A   Mostly Cloudy
6:55 PM 6.8 °F -2.0 °F -5.8 °F 56% 30.18 in 10.0 mi WNW 4.6 mph - N/A   Partly Cloudy
7:15 PM 6.8 °F -2.0 °F -5.8 °F 56% 30.17 in 10.0 mi NW 4.6 mph - N/A   Clear
7:35 PM 6.8 °F -2.0 °F -5.8 °F 56% 30.17 in 10.0 mi NW 4.6 mph - N/A   Clear
7:55 PM 6.8 °F -0.1 °F -7.6 °F 52% 30.17 in 10.0 mi WNW 3.5 mph - N/A   Clear
8:15 PM 5.0 °F -2.1 °F -5.8 °F 61% 30.16 in 10.0 mi WNW 3.5 mph - N/A   Clear
8:35 PM 3.2 °F -4.2 °F -7.6 °F 61% 30.16 in 10.0 mi WNW 3.5 mph - N/A   Clear
8:55 PM 3.2 °F -4.2 °F -5.8 °F 66% 30.15 in 10.0 mi WNW 3.5 mph - N/A   Clear
9:15 PM 3.2 °F -7.8 °F -7.6 °F 61% 30.15 in 10.0 mi NW 5.8 mph - N/A   Clear
9:35 PM 3.2 °F -6.2 °F -7.6 °F 61% 30.15 in 10.0 mi WNW 4.6 mph - N/A   Clear
9:55 PM 3.2 °F -4.2 °F -7.6 °F 61% 30.14 in 10.0 mi West 3.5 mph - N/A   Clear
10:15 PM 3.2 °F -4.2 °F -7.6 °F 61% 30.14 in 10.0 mi WNW 3.5 mph - N/A   Clear
10:35 PM 1.4 °F -9.9 °F -7.6 °F 66% 30.14 in 10.0 mi West 5.8 mph - N/A   Clear
10:55 PM 1.4 °F -9.9 °F -7.6 °F 66% 30.13 in 10.0 mi West 5.8 mph - N/A   Clear
11:15 PM 1.4 °F -8.3 °F -7.6 °F 66% 30.13 in 10.0 mi West 4.6 mph - N/A   Clear
11:35 PM 1.4 °F -11.3 °F -7.6 °F 66% 30.12 in 10.0 mi West 6.9 mph - N/A   Clear
11:55 PM 1.4 °F -8.3 °F -7.6 °F 66% 30.12 in 10.0 mi West 4.6 mph - N/A   Clear